• Em Portugal
  • Lista de países
  • Para 7 dias
  • Temperatura da água
  • Mapas de satélite
  • Mapa do tempo
  • Widgets de tempo
  • user-avatar
    Iniciar Sessão

    Previsão horária em Pomianowo

    Hoje, 20 Junho, Quarta-feira

    Tempo Temperatura Precipitação Vento Pressão Humidade
    00:00 +14°C° 0 mm 4 m/s 762 mmHg 91%
    01:00 +13°C° 0 mm 4 m/s 762 mmHg 91%
    02:00 +13°C° 0 mm 4 m/s 762 mmHg 91%
    03:00 +12°C° 0 mm 4 m/s 762 mmHg 91%
    04:00 +12°C° 0 mm 4 m/s 762 mmHg 91%
    05:00 +13°C° 0 mm 4 m/s 762 mmHg 83%
    06:00 +15°C° 0 mm 4 m/s 763 mmHg 75%
    07:00 +18°C° 0 mm 4 m/s 763 mmHg 67%
    08:00 +19°C° 0 mm 4 m/s 763 mmHg 61%
    09:00 +20°C° 0 mm 4 m/s 762 mmHg 54%
    10:00 +22°C° 0 mm 4 m/s 762 mmHg 48%
    11:00 +23°C° 0 mm 4 m/s 762 mmHg 47%
    12:00 +25°C° 0 mm 4 m/s 762 mmHg 47%
    13:00 +27°C° 0 mm 3 m/s 761 mmHg 44%
    14:00 +27°C° 0 mm 4 m/s 761 mmHg 49%
    15:00 +26°C° 0 mm 4 m/s 760 mmHg 53%
    16:00 +26°C° 0 mm 4 m/s 760 mmHg 57%
    17:00 +25°C° 0 mm 4 m/s 760 mmHg 62%
    18:00 +23°C° 0 mm 4 m/s 759 mmHg 67%
    19:00 +22°C° 0 mm 3 m/s 759 mmHg 72%
    20:00 +22°C° 0 mm 3 m/s 758 mmHg 76%
    21:00 +21°C° 0 mm 3 m/s 758 mmHg 80%
    22:00 +20°C° 0 mm 3 m/s 758 mmHg 83%
    23:00 +19°C° 0 mm 3 m/s 758 mmHg 85%

    Amanhã, 21 Junho, Quinta-feira

    Tempo Temperatura Precipitação Vento Pressão Humidade
    00:00 +19°C° 0 mm 3 m/s 757 mmHg 87%
    01:00 +18°C° 0 mm 3 m/s 757 mmHg 89%
    02:00 +18°C° 0 mm 4 m/s 756 mmHg 91%
    03:00 +18°C° 0 mm 4 m/s 756 mmHg 92%
    04:00 +18°C° 0 mm 4 m/s 755 mmHg 93%
    05:00 +19°C° 0 mm 4 m/s 754 mmHg 86%
    06:00 +21°C° 0 mm 5 m/s 754 mmHg 80%
    07:00 +22°C° 0 mm 6 m/s 753 mmHg 74%
    08:00 +23°C° 0,1 mm 6 m/s 753 mmHg 68%
    09:00 +24°C° 0,1 mm 7 m/s 752 mmHg 62%
    10:00 +26°C° 0,1 mm 7 m/s 752 mmHg 56%
    11:00 +24°C° 0,4 mm 7 m/s 751 mmHg 62%
    12:00 +23°C° 0,4 mm 7 m/s 751 mmHg 68%
    13:00 +21°C° 0,4 mm 7 m/s 751 mmHg 74%
    14:00 +19°C° 1 mm 6 m/s 751 mmHg 80%
    15:00 +15°C° 1 mm 6 m/s 751 mmHg 87%
    16:00 +13°C° 1 mm 5 m/s 751 mmHg 93%
    17:00 +13°C° 0,7 mm 6 m/s 751 mmHg 91%
    18:00 +12°C° 0,7 mm 7 m/s 752 mmHg 90%
    19:00 +12°C° 0,7 mm 8 m/s 752 mmHg 88%
    20:00 +11°C° 0,4 mm 8 m/s 752 mmHg 88%
    21:00 +10°C° 0,4 mm 8 m/s 752 mmHg 88%
    22:00 +9°C° 0,4 mm 7 m/s 753 mmHg 88%
    23:00 +9°C° 0,1 mm 8 m/s 753 mmHg 86%

    Depois de amanhã, 22 Junho, Sexta-feira

    Tempo Temperatura Precipitação Vento Pressão Humidade
    00:00 +9°C° 0,1 mm 8 m/s 753 mmHg 85%
    01:00 +7°C° 0,1 mm 8 m/s 753 mmHg 84%
    02:00 +7°C° 0,2 mm 9 m/s 753 mmHg 83%
    03:00 +7°C° 0,2 mm 9 m/s 753 mmHg 81%
    04:00 +8°C° 0,2 mm 9 m/s 753 mmHg 80%
    05:00 +8°C° 0,3 mm 9 m/s 753 mmHg 78%
    06:00 +10°C° 0,3 mm 9 m/s 753 mmHg 76%
    07:00 +10°C° 0,3 mm 9 m/s 753 mmHg 74%
    08:00 +10°C° 0,7 mm 9 m/s 753 mmHg 77%
    09:00 +11°C° 0,7 mm 8 m/s 754 mmHg 79%
    10:00 +11°C° 0,7 mm 8 m/s 754 mmHg 82%
    11:00 +12°C° 0,5 mm 8 m/s 754 mmHg 80%
    12:00 +13°C° 0,5 mm 8 m/s 754 mmHg 78%
    13:00 +15°C° 0,5 mm 7 m/s 754 mmHg 76%
    14:00 +16°C° 0,3 mm 7 m/s 754 mmHg 71%
    15:00 +16°C° 0,3 mm 7 m/s 755 mmHg 66%
    16:00 +17°C° 0,3 mm 7 m/s 755 mmHg 61%
    17:00 +16°C° 0,1 mm 7 m/s 755 mmHg 64%
    18:00 +15°C° 0,1 mm 6 m/s 755 mmHg 68%
    19:00 +15°C° 0,1 mm 6 m/s 755 mmHg 72%
    20:00 +14°C° 0 mm 6 m/s 755 mmHg 75%
    21:00 +11°C° 0 mm 6 m/s 755 mmHg 79%
    22:00 +10°C° 0 mm 6 m/s 755 mmHg 83%
    23:00 +10°C° 0,1 mm 6 m/s 755 mmHg 83%

    23 Junho, Sábado

    Tempo Temperatura Precipitação Vento Pressão Humidade
    00:00 +10°C° 0,1 mm 6 m/s 755 mmHg 84%
    01:00 +10°C° 0,1 mm 6 m/s 755 mmHg 85%
    02:00 +10°C° 0,1 mm 6 m/s 755 mmHg 84%
    03:00 +10°C° 0,1 mm 6 m/s 755 mmHg 82%
    04:00 +10°C° 0,1 mm 6 m/s 755 mmHg 81%
    05:00 +11°C° 0 mm 7 m/s 755 mmHg 77%
    06:00 +12°C° 0 mm 7 m/s 755 mmHg 72%
    07:00 +12°C° 0 mm 8 m/s 755 mmHg 67%
    08:00 +13°C° 0 mm 8 m/s 755 mmHg 63%
    09:00 +15°C° 0 mm 8 m/s 755 mmHg 60%
    10:00 +16°C° 0 mm 8 m/s 756 mmHg 56%
    11:00 +17°C° 0 mm 8 m/s 756 mmHg 54%
    12:00 +17°C° 0 mm 8 m/s 756 mmHg 53%
    13:00 +18°C° 0 mm 8 m/s 756 mmHg 51%
    14:00 +18°C° 0 mm 8 m/s 756 mmHg 52%
    15:00 +18°C° 0 mm 8 m/s 756 mmHg 53%
    16:00 +18°C° 0 mm 7 m/s 756 mmHg 54%
    17:00 +17°C° 0 mm 7 m/s 756 mmHg 59%
    18:00 +16°C° 0 mm 7 m/s 757 mmHg 65%
    19:00 +15°C° 0 mm 6 m/s 757 mmHg 70%
    20:00 +14°C° 0 mm 6 m/s 757 mmHg 75%
    21:00 +13°C° 0 mm 5 m/s 757 mmHg 80%
    22:00 +12°C° 0 mm 5 m/s 758 mmHg 85%
    23:00 +12°C° 0 mm 5 m/s 758 mmHg 88%

    24 Junho, Domingo

    Tempo Temperatura Precipitação Vento Pressão Humidade
    00:00 +10°C° 0 mm 5 m/s 758 mmHg 92%
    01:00 +11°C° 0 mm 4 m/s 758 mmHg 95%
    02:00 +11°C° 0,1 mm 4 m/s 758 mmHg 95%
    03:00 +11°C° 0,1 mm 4 m/s 758 mmHg 95%
    04:00 +12°C° 0,1 mm 4 m/s 758 mmHg 95%
    05:00 +12°C° 0,2 mm 4 m/s 758 mmHg 92%
    06:00 +13°C° 0,2 mm 4 m/s 758 mmHg 89%
    07:00 +14°C° 0,2 mm 4 m/s 758 mmHg 86%
    08:00 +15°C° 0,3 mm 4 m/s 759 mmHg 84%
    09:00 +15°C° 0,3 mm 4 m/s 759 mmHg 82%
    10:00 +17°C° 0,3 mm 4 m/s 759 mmHg 80%
    11:00 +17°C° 0,1 mm 4 m/s 759 mmHg 75%
    12:00 +18°C° 0,1 mm 4 m/s 760 mmHg 71%
    13:00 +19°C° 0,1 mm 4 m/s 760 mmHg 67%
    14:00 +19°C° 0,1 mm 4 m/s 760 mmHg 64%
    15:00 +20°C° 0,1 mm 4 m/s 760 mmHg 61%
    16:00 +20°C° 0,1 mm 4 m/s 760 mmHg 57%
    17:00 +20°C° 0 mm 4 m/s 760 mmHg 62%
    18:00 +19°C° 0 mm 3 m/s 760 mmHg 66%
    19:00 +18°C° 0 mm 3 m/s 760 mmHg 71%
    20:00 +17°C° 0 mm 2 m/s 761 mmHg 77%
    21:00 +15°C° 0 mm 2 m/s 761 mmHg 84%
    22:00 +13°C° 0 mm 2 m/s 761 mmHg 90%
    23:00 +13°C° 0 mm 2 m/s 761 mmHg 92%

    25 Junho, Segunda-feira

    Tempo Temperatura Precipitação Vento Pressão Humidade
    00:00 +12°C° 0 mm 3 m/s 761 mmHg 93%
    01:00 +12°C° 0 mm 3 m/s 761 mmHg 94%
    02:00 +12°C° 0 mm 3 m/s 762 mmHg 95%
    03:00 +11°C° 0 mm 3 m/s 762 mmHg 96%
    04:00 +11°C° 0 mm 3 m/s 762 mmHg 96%
    05:00 +13°C° 0 mm 3 m/s 762 mmHg 90%
    06:00 +16°C° 0 mm 3 m/s 762 mmHg 84%
    07:00 +18°C° 0 mm 3 m/s 762 mmHg 78%
    08:00 +19°C° 0 mm 3 m/s 763 mmHg 72%
    09:00 +20°C° 0 mm 3 m/s 763 mmHg 65%
    10:00 +22°C° 0 mm 3 m/s 763 mmHg 58%
    11:00 +22°C° 0 mm 3 m/s 763 mmHg 57%
    12:00 +22°C° 0 mm 3 m/s 763 mmHg 55%
    13:00 +23°C° 0 mm 4 m/s 763 mmHg 54%
    14:00 +23°C° 0 mm 4 m/s 763 mmHg 55%
    15:00 +23°C° 0 mm 4 m/s 763 mmHg 56%
    16:00 +23°C° 0 mm 4 m/s 763 mmHg 56%
    17:00 +22°C° 0 mm 3 m/s 763 mmHg 61%
    18:00 +21°C° 0 mm 3 m/s 763 mmHg 66%
    19:00 +20°C° 0 mm 2 m/s 763 mmHg 70%
    20:00 +18°C° 0 mm 2 m/s 764 mmHg 77%
    21:00 +17°C° 0 mm 2 m/s 764 mmHg 83%
    22:00 +15°C° 0 mm 1 m/s 764 mmHg 89%
    23:00 +14°C° 0 mm 1 m/s 764 mmHg 90%
    Mostrar mais